Volver al catálogo

TIANLU-1

ActivoMeteoSSO
NORAD 62725·PAYLOAD·🇨🇳 China
Este nombre de satélite aún no ha sido confirmado por fuentes oficiales.

Lanzado Jan 17, 2025 desde Jiuquan Satellite Launch Center

Loading…

Próximos Pases (próximas 24 horas)

TLE

ActualizadoSource: Space-Track

Época: Sep 14, 2026, 22:14 UTC

1 62725U 25012A   26257.92686318  .00006010  00000-0  30202-3 0  9994
2 62725  97.4147 328.5901 0004205 335.4415  24.6618 15.17619930 91807

Sigue TIANLU-1 en tiempo real con AllMySat

Download on the App Store